Temp
20 21 21 21 23 23 25 27 26 27 27 26 28 26 23 22 24 23 21 20 20 20 21 21 21 21 21 21 21 21 22 22 22 23 21 21 22 21 21 21 21 21 21 21 21 20 20 20 20
21 21 21 21 23 23 24 27 27 27 27 27 27 26 24 22 22 20 19 20 21 21 21 21 21 21 21 21 21 22 21 22 23 22 21 21 21 21 21 21 20 20 21 20 20 20 20 21 20
21 23 22 22 23 24 25 27 27 27 28 28 26 26 24 21 21 20 20 20 21 21 21 21 21 21 21 21 21 22 21 22 23 21 22 21 21 21 21 20 20 21 21 21 21 21 20 20 20
23 22 22 24 25 28 28 27 27 28 28 27 26 24 24 23 22 21 20 20 21 20 21 20 20 21 21 21 21 21 21 22 21 22 22 22 21 21 21 21 21 21 21 21 21 21 21 20 21
24 22 23 24 26 29 29 28 28 27 26 26 26 24 22 23 22 21 20 20 21 20 20 21 21 21 21 21 21 22 22 22 22 22 22 22 21 21 21 21 21 21 22 22 22 21 21 21 21
22 22 24 25 28 29 29 29 29 27 26 25 24 24 22 22 21 20 20 21 21 21 20 21 21 21 21 21 22 22 22 22 23 22 22 22 22 22 22 22 22 22 22 22 22 22 22 22 22
23 22 25 27 28 29 28 28 28 26 26 26 26 22 22 22 21 21 21 21 21 21 21 21 21 21 21 21 21 21 22 22 23 23 22 22 22 23 23 22 22 22 22 22 22 22 23 22 22
23 22 25 26 27 27 29 29 28 27 27 27 26 22 21 22 22 21 21 21 21 21 21 21 21 21 21 21 21 22 23 23 23 23 23 23 23 23 22 22 22 22 23 23 23 23 23 23 22
24 23 25 26 28 29 29 28 29 29 26 28 27 25 25 23 23 21 20 20 20 21 21 21 21 21 21 21 21 22 23 23 23 23 23 23 23 23 23 23 23 23 23 24 23 23 23 23 23
23 22 27 30 30 29 29 28 28 27 27 27 26 26 24 24 23 21 21 20 20 20 21 21 21 21 21 21 22 22 22 23 23 23 23 23 24 24 23 23 24 24 24 24 24 24 24 24 24
25 25 29 31 33 30 29 29 29 27 26 26 25 24 25 24 23 22 21 21 20 21 21 21 21 22 22 21 22 23 23 24 24 24 23 23 23 23 24 24 24 24 24 24 24 24 24 24 24
26 27 29 31 33 32 30 30 28 28 28 28 26 25 25 25 24 23 22 21 21 20 21 22 22 22 22 22 23 23 23 24 24 24 24 23 23 24 24 24 24 24 24 24 24 24 24 24 23
26 28 30 30 31 33 31 30 29 28 29 28 27 26 25 25 25 24 23 22 22 21 21 22 22 22 22 22 24 24 24 24 25 24 24 24 23 24 24 24 24 25 25 24 24 25 24 24 24
29 30 31 31 31 33 30 30 29 29 29 27 26 26 26 25 25 25 24 23 22 22 22 22 22 23 23 23 24 25 24 25 25 25 25 24 24 24 24 25 24 25 25 25 24 24 24 24 25
30 30 30 31 31 30 32 29 29 30 28 27 26 26 26 26 26 25 24 23 23 23 23 23 23 23 23 24 25 24 25 25 25 25 25 24 24 24 24 24 24 24 25 24 24 24 24 24 25
30 30 29 32 31 31 32 29 30 29 28 26 26 26 26 26 26 26 25 24 24 23 23 23 23 23 24 24 25 24 25 25 25 25 25 25 24 24 24 24 24 24 24 24 24 23 23 24 24
26 27 29 31 32 31 31 28 29 29 28 27 26 26 26 26 26 26 26 25 25 24 24 24 23 23 24 25 25 25 25 25 26 26 26 25 24 24 24 24 24 24 24 24 24 23 23 24 24
27 28 28 30 32 32 29 28 29 29 28 27 27 27 27 26 26 26 26 26 25 25 24 24 24 24 25 25 25 25 24 25 25 26 26 26 25 25 24 24 24 24 24 23 23 23 23 23 24
29 29 28 30 32 30 29 28 29 29 29 28 27 27 27 27 27 27 27 26 26 25 24 24 23 24 24 23 24 24 24 25 25 25 25 26 25 25 25 24 24 24 23 23 23 23 23 23 23
28 28 28 29 31 30 29 29 29 29 29 29 28 28 27 27 27 27 27 27 26 25 25 24 24 24 24 24 25 24 25 25 26 26 26 25 25 25 25 24 24 24 23 23 23 23 23 23 23
27 27 29 29 30 30 28 28 28 29 29 29 29 29 29 28 28 27 27 27 27 25 25 24 24 25 25 25 25 24 25 25 25 25 25 25 25 25 25 24 24 23 23 23 23 23 23 23 23
25 28 30 30 29 28 29 26 27 28 28 29 28 28 29 29 29 29 27 27 27 26 25 25 24 24 25 25 24 24 24 24 25 25 26 26 25 25 25 25 24 24 23 23 23 23 23 23 23
28 30 29 30 28 28 29 27 26 28 28 28 29 29 29 29 29 29 28 27 27 26 25 25 24 24 25 25 24 24 24 25 26 26 25 26 26 26 25 25 24 24 23 23 23 23 23 23 23
30 30 28 28 25 25 29 27 29 27 29 30 29 30 30 30 29 29 30 28 27 27 25 25 24 24 24 25 24 24 24 25 25 25 25 25 25 25 24 24 24 23 23 23 23 23 23 23 23
28 25 24 24 24 27 27 26 30 29 31 32 31 30 31 30 30 30 29 29 28 27 26 25 24 23 23 24 24 24 24 25 25 25 25 25 25 25 24 24 24 23 23 23 23 23 23 23 23
25 26 21 24 23 27 26 26 28 32 31 32 33 33 32 31 31 30 30 29 29 27 26 25 24 24 23 23 23 24 25 25 25 26 26 26 26 25 25 24 24 24 23 23 23 23 23 22 22
27 26 27 25 24 24 25 27 29 30 30 30 30 32 31 31 31 31 30 30 30 28 27 26 24 24 23 23 24 23 24 24 24 25 26 26 26 26 25 25 24 24 23 23 23 22 22 22 22
29 26 28 20 25 25 25 26 28 28 31 28 30 30 32 32 31 32 31 31 30 29 27 26 25 25 24 24 24 24 25 25 25 26 26 26 26 25 25 25 24 24 23 23 23 22 22 22 22
27 27 26 24 23 27 25 28 29 29 29 28 28 31 32 31 32 32 32 32 31 30 28 26 26 25 25 24 24 24 24 24 24 25 26 26 25 25 24 25 25 24 23 23 23 23 23 22 22
29 29 24 24 25 24 29 28 31 29 30 28 29 29 31 33 32 33 33 32 31 30 28 26 26 25 25 25 24 24 24 23 24 25 26 26 26 25 25 25 25 24 24 23 23 23 23 22 22
Height
776 777 778 782 796 795 791 777 764 765 768 761 758 766 780 783 784 802 792 796 800 803 805 806 810 813 814 817 819 821 822 823 824 825 826 827 828 830 831 833 833 833 832 832 832 832 832 832 832
771 775 779 783 799 809 797 766 768 766 762 758 761 768 777 789 783 789 795 797 801 804 806 809 812 815 817 819 821 823 824 825 826 827 828 829 830 832 833 834 834 834 834 834 834 834 833 833 832
772 772 779 790 799 806 795 768 767 763 757 756 768 767 777 788 787 790 793 798 802 806 808 811 814 817 819 822 823 824 826 827 828 829 830 831 832 834 835 835 835 834 835 834 833 833 834 834 835
772 774 778 792 793 774 767 762 757 760 758 758 764 781 780 783 787 789 794 799 803 807 810 814 816 819 822 824 825 826 827 829 830 831 832 833 834 836 836 836 836 836 835 835 834 834 835 835 835
770 775 793 793 784 763 757 759 757 762 765 766 764 786 789 788 788 792 796 800 804 809 812 815 818 821 823 825 826 828 829 830 831 832 833 835 836 837 837 837 838 837 836 836 835 836 836 836 836
780 782 799 797 779 761 759 754 756 762 765 770 776 782 792 789 791 795 799 803 807 810 814 817 819 822 824 826 827 829 830 831 832 834 835 836 837 838 839 839 839 838 837 837 837 837 837 837 836
783 793 792 782 775 769 762 754 763 765 768 772 768 788 792 792 794 796 800 804 809 812 814 818 820 823 825 826 828 830 831 832 833 835 836 837 838 839 839 840 840 839 839 838 838 838 838 838 838
777 787 791 781 778 776 755 759 758 763 768 763 767 788 794 789 794 798 801 805 809 812 815 817 820 823 825 827 829 830 831 833 834 835 836 837 839 840 840 841 841 840 840 840 840 841 840 839 839
771 791 792 779 774 763 753 764 758 756 763 763 764 769 776 785 793 799 803 807 811 813 815 817 820 822 824 826 828 830 831 833 834 836 837 838 839 841 841 841 841 840 841 841 841 841 841 840 840
777 791 773 753 750 754 751 757 757 764 768 769 767 769 778 785 791 796 800 804 808 810 813 816 819 821 823 826 828 829 831 832 834 836 837 839 840 840 841 842 842 841 841 841 841 842 841 840 840
766 772 749 743 738 745 748 756 751 765 775 762 767 769 776 783 789 793 798 801 803 807 811 814 817 819 822 824 826 828 830 831 834 836 838 840 840 840 841 842 842 842 841 841 841 841 840 840 840
768 751 748 737 741 746 756 750 755 759 752 749 754 759 769 778 784 789 794 797 802 806 809 812 815 817 821 824 825 826 829 831 833 835 838 839 839 840 840 841 841 841 841 841 841 841 840 840 840
760 746 740 736 738 739 742 754 750 753 746 754 760 766 770 775 781 785 789 794 799 802 806 809 813 815 819 822 824 825 828 830 832 835 837 838 839 840 840 841 841 841 841 841 841 840 841 841 840
742 742 739 733 731 734 746 752 754 752 747 756 761 765 770 774 776 783 789 792 795 798 802 806 810 813 817 820 821 824 827 829 832 834 835 837 838 839 840 840 840 840 840 840 841 841 841 841 841
737 750 741 735 727 735 730 759 751 742 746 756 759 763 769 772 777 779 783 786 790 794 799 803 806 811 814 817 819 823 825 827 829 831 834 835 837 839 840 841 840 840 839 840 840 841 841 841 840
745 746 760 731 724 721 728 764 741 739 747 757 758 760 766 769 772 776 779 782 786 792 796 800 804 807 811 814 817 821 823 825 827 828 831 833 835 837 839 839 839 839 839 840 840 841 841 840 840
761 770 760 746 720 727 730 758 740 736 744 754 759 757 762 768 771 773 775 778 784 787 792 797 801 805 808 812 815 819 822 822 824 826 828 830 832 835 837 837 838 838 839 839 840 840 840 840 839
772 766 756 755 730 728 743 747 738 739 741 749 752 755 759 763 762 766 770 775 781 785 789 793 797 801 805 809 813 817 819 820 822 824 825 827 830 833 834 836 836 837 838 839 839 840 840 840 840
747 752 756 747 727 736 744 747 740 738 743 748 751 752 754 755 754 762 766 771 776 781 786 790 794 797 802 805 810 814 816 818 820 822 824 825 827 830 832 834 835 836 837 838 839 839 840 840 840
748 756 754 742 732 737 744 745 735 736 732 730 737 743 744 749 755 757 761 766 768 771 777 783 787 791 795 800 804 809 811 814 816 819 821 823 826 828 829 831 833 835 836 838 838 839 839 839 840
747 754 746 750 737 731 742 752 747 735 735 737 737 734 737 740 743 748 752 756 762 766 769 772 778 785 790 794 799 804 808 810 812 814 817 820 823 825 826 828 831 832 834 836 837 837 838 839 839
760 731 735 739 750 773 737 786 753 741 740 735 734 734 733 735 737 740 745 749 751 756 762 766 772 778 785 790 793 797 800 803 806 810 813 817 819 820 823 825 827 829 831 833 834 836 837 838 839
734 723 734 737 751 755 751 770 755 736 747 739 729 726 725 726 730 731 734 737 740 747 753 759 765 772 777 783 787 792 796 798 802 806 810 813 815 817 819 822 825 826 828 830 832 834 835 837 838
716 728 737 741 761 781 745 761 748 744 731 723 720 715 713 717 719 722 723 731 738 743 748 752 758 763 770 775 780 784 789 793 797 801 805 808 811 813 816 819 822 824 826 827 830 832 834 836 836
722 753 785 787 784 764 738 759 727 712 703 700 704 702 698 701 708 713 720 725 730 736 741 746 752 756 762 768 773 778 782 786 790 796 800 803 806 808 811 815 818 820 823 825 828 830 831 831 831
729 736 780 791 788 757 740 751 718 687 683 680 680 679 686 694 698 702 704 710 717 723 731 737 742 749 754 760 765 771 776 780 784 789 794 797 800 803 806 810 814 817 820 822 824 825 828 830 832
719 734 719 752 755 769 745 716 694 682 685 681 684 682 684 683 686 688 693 698 705 714 719 725 732 740 746 751 758 764 769 774 778 782 787 791 795 798 802 805 808 812 815 818 820 823 825 826 828
693 706 734 763 766 767 747 731 720 697 687 684 679 678 674 674 675 675 680 687 695 701 707 717 723 728 735 743 750 756 761 766 771 776 780 784 788 793 796 800 804 807 811 814 816 818 821 824 826
700 706 713 724 742 746 756 719 680 685 679 680 674 666 664 665 663 665 669 676 684 693 703 709 716 724 731 738 743 750 755 760 766 770 774 778 783 787 790 793 798 801 805 809 811 813 817 820 823
671 685 708 731 732 723 709 710 654 660 659 666 664 660 653 650 650 652 658 666 677 685 693 700 707 714 720 726 734 740 747 753 758 763 766 771 775 781 784 788 792 796 800 803 806 809 812 815 818
Wind_Speed
16 15 12 2 0 1 3 3 1 3 3 3 3 8 8 6 1 3 18 14 22 23 23 24 22 22 23 23 24 23 24 23 22 21 19 17 16 14 14 12 11 10 9 8 8 10 9 7 6
22 13 2 2 1 2 3 3 3 2 7 11 10 9 5 4 5 12 13 24 23 25 23 25 23 23 22 22 22 23 20 20 20 19 17 16 14 12 12 11 9 8 7 7 8 8 7 6 6
15 8 3 2 1 1 3 3 7 10 8 3 5 8 4 3 11 14 20 28 28 26 23 24 24 23 22 21 20 21 19 19 18 16 16 14 12 11 10 9 8 8 7 7 7 7 6 6 7
7 2 3 2 5 5 5 8 14 10 8 9 12 9 5 13 10 14 33 30 30 26 25 22 23 23 22 20 20 20 18 17 16 15 15 13 11 9 8 8 7 7 7 7 7 7 6 7 7
3 3 2 2 4 4 2 8 7 7 5 12 5 6 8 8 13 34 28 30 31 27 24 22 23 23 21 19 19 18 16 15 14 14 13 11 9 8 7 7 6 6 7 7 7 8 7 7 9
3 2 1 3 4 1 1 10 5 8 10 13 13 9 3 21 30 25 28 30 30 28 24 23 22 22 21 19 18 17 15 13 13 12 11 10 8 7 7 6 6 6 5 6 6 8 8 8 7
4 3 3 2 2 3 4 6 8 13 11 8 11 5 6 15 23 26 27 28 28 27 25 23 22 21 20 19 18 16 15 13 12 11 10 8 7 7 6 6 6 5 4 4 5 8 9 7 5
2 3 3 5 7 4 8 9 9 10 5 13 11 7 10 19 25 25 27 27 28 27 25 25 24 23 22 20 18 17 15 12 12 11 10 8 6 4 3 3 4 4 4 4 5 6 6 5 2
3 0 3 7 7 5 8 5 9 4 13 5 4 8 17 31 29 25 22 22 24 27 27 26 26 25 23 22 19 17 16 14 13 12 9 8 6 3 3 1 3 4 4 4 4 5 6 3 2
4 3 6 6 1 12 19 16 16 6 13 2 8 16 29 31 29 25 22 21 24 26 29 28 27 26 24 22 20 19 17 16 15 13 10 8 5 3 2 2 3 3 5 3 2 2 3 2 4
5 6 1 6 9 6 22 15 9 13 9 8 21 23 23 28 27 24 23 26 29 32 31 31 30 27 27 25 23 21 20 18 16 14 12 9 7 4 5 3 5 6 4 4 3 0 3 2 3
4 10 8 14 3 7 14 12 7 19 8 15 24 28 25 22 20 25 26 27 27 27 33 33 31 30 28 25 25 23 22 20 18 15 13 10 8 5 8 6 4 5 5 4 3 1 2 4 3
8 10 8 16 14 9 15 16 13 23 7 17 19 21 23 21 25 29 29 28 29 30 32 35 33 32 30 27 25 24 24 21 18 16 15 12 9 9 10 7 6 4 2 3 2 3 2 2 2
6 20 20 13 15 13 18 14 8 17 17 20 21 23 21 21 26 24 25 26 28 33 34 36 35 33 31 30 28 26 23 20 18 18 16 15 12 11 12 6 6 5 5 3 2 1 2 1 2
6 6 8 11 13 10 20 17 22 15 22 23 23 21 20 20 26 26 28 29 32 35 35 36 37 35 34 32 29 27 23 21 20 21 18 17 16 14 12 8 6 5 6 7 5 2 1 3 1
3 3 3 4 3 6 23 17 19 20 24 22 23 20 20 20 25 29 30 33 34 30 34 37 36 36 35 33 29 25 23 23 21 20 19 20 18 17 11 9 9 6 3 7 4 4 3 2 2
4 5 5 5 4 6 6 4 12 22 23 22 20 20 19 17 20 29 31 33 32 35 35 38 37 36 36 34 30 25 19 17 22 17 17 22 21 18 14 9 9 9 7 6 3 3 3 1 2
5 4 5 4 2 2 3 4 18 21 22 23 22 20 19 19 23 31 32 32 32 34 35 40 41 39 38 35 32 27 21 16 17 17 17 20 23 21 16 12 10 10 9 8 5 5 3 2 1
3 4 6 5 5 5 11 7 20 20 17 18 19 20 20 21 23 30 33 32 33 33 34 37 37 39 37 36 33 32 27 23 21 19 17 18 25 22 19 15 12 12 12 9 6 7 5 4 2
7 8 12 0 7 5 6 13 19 22 26 25 23 22 23 22 18 22 32 33 34 39 42 39 41 41 42 39 37 33 34 30 26 22 18 19 22 23 21 18 15 13 13 10 10 9 7 7 4
6 9 10 8 2 0 5 3 10 20 12 15 18 23 21 23 24 18 24 35 35 35 40 44 45 43 44 40 38 32 30 30 25 24 23 21 20 25 23 22 17 16 15 13 14 11 8 7 7
8 6 8 3 4 3 5 4 6 16 21 20 19 19 20 21 20 17 18 29 36 39 41 43 43 43 46 43 40 35 29 25 30 28 21 21 22 26 25 22 20 18 18 17 16 12 12 10 8
11 5 6 4 5 1 5 1 6 17 18 20 20 21 22 21 20 22 20 33 41 39 40 42 44 44 43 47 41 38 30 33 30 29 25 23 22 22 23 23 21 18 18 18 18 16 14 12 9
5 1 4 3 3 6 16 9 9 12 22 23 19 23 26 24 24 23 33 31 33 35 37 40 42 44 43 47 46 41 35 35 34 29 29 28 25 22 25 24 22 19 18 19 19 17 14 13 11
5 7 4 3 4 10 9 6 15 8 22 28 27 26 28 27 25 24 22 21 30 34 36 36 38 39 42 45 44 43 41 41 39 36 30 28 28 26 30 28 25 23 20 19 20 19 17 16 17
9 11 6 7 4 9 5 9 8 17 11 20 25 28 24 24 23 25 26 27 34 37 38 39 39 39 40 43 44 45 44 42 41 39 34 31 29 26 27 31 29 26 24 22 22 21 19 16 16
7 10 13 2 1 2 5 8 6 8 11 10 13 15 21 24 24 27 25 31 36 36 40 43 40 41 40 44 43 42 44 41 39 40 35 32 32 28 28 32 32 30 28 26 23 24 22 19 17
15 8 4 2 11 12 5 7 5 8 15 10 11 12 17 21 24 25 23 26 36 40 42 43 44 45 44 45 44 43 45 45 42 40 36 33 33 32 31 34 34 32 31 29 26 26 24 21 18
6 7 3 7 6 9 4 10 9 10 10 11 12 14 17 19 24 24 22 29 34 37 35 41 41 41 40 40 41 39 39 41 41 42 39 37 33 31 32 34 35 34 34 32 29 28 27 24 20
14 16 9 5 12 9 12 11 1 13 15 11 10 11 18 23 24 25 22 20 27 32 33 38 40 40 43 43 41 41 40 38 40 44 42 40 39 36 32 34 36 36 36 35 33 31 30 28 25
Wind_Direction
149 158 155 117 281 50 271 297 295 87 62 341 65 114 118 36 47 132 148 144 146 145 147 144 143 138 134 130 132 128 128 126 125 123 121 119 114 109 105 100 95 94 89 88 83 81 85 90 104
150 153 147 92 32 12 292 272 344 54 124 114 96 101 61 72 71 121 133 160 152 148 147 144 143 141 136 134 132 129 126 125 125 125 122 116 113 110 109 107 103 92 86 79 76 78 83 92 98
154 196 119 76 142 233 290 344 117 129 162 86 112 72 75 83 114 135 151 155 152 149 149 144 145 144 141 137 135 132 128 128 128 125 122 118 117 112 111 114 102 89 79 73 76 80 81 77 74
159 105 101 54 297 228 211 173 139 153 85 72 105 75 67 128 136 148 150 155 153 152 148 149 148 147 147 144 139 136 133 131 128 125 123 122 117 113 123 115 99 86 76 64 70 71 70 68 78
71 58 50 301 277 284 163 162 157 130 74 107 98 90 108 139 137 143 151 156 157 156 152 153 152 153 153 151 144 143 141 136 134 131 127 124 118 122 117 108 98 77 66 60 63 69 70 71 80
59 57 182 246 269 92 76 154 147 104 113 112 105 101 69 134 138 150 156 162 163 160 159 159 159 159 159 158 155 155 151 147 144 136 135 135 131 123 109 102 90 75 62 62 68 79 81 81 88
127 148 233 241 233 128 176 170 159 135 130 121 136 92 120 140 153 154 161 165 168 167 165 165 165 165 167 168 166 166 163 157 152 147 144 150 143 132 123 102 87 82 74 79 82 86 86 89 86
195 123 198 219 213 214 162 181 151 139 107 113 139 157 161 170 161 160 164 166 169 171 171 173 170 171 174 175 177 177 174 167 168 163 162 160 157 144 121 92 87 93 94 96 88 83 91 104 92
148 185 222 201 181 190 159 137 157 102 139 164 179 139 154 162 161 155 154 160 168 177 178 179 177 179 181 182 183 186 186 184 182 181 181 177 173 180 167 92 55 96 113 104 91 84 78 50 53
171 164 227 183 181 175 169 165 173 136 162 94 105 124 150 162 160 160 161 168 174 180 185 184 183 185 184 186 189 194 193 197 193 191 190 186 193 197 193 124 130 135 128 114 81 89 79 88 59
182 231 14 249 39 160 168 179 169 145 197 180 154 149 160 168 165 169 172 174 181 185 185 188 188 188 188 191 194 197 199 201 198 199 200 200 210 210 189 169 160 172 157 152 165 28 359 84 48
240 233 259 285 190 184 196 179 169 174 195 171 162 161 163 173 174 174 178 181 182 186 189 191 192 191 193 196 199 200 202 202 203 202 203 205 209 212 192 187 175 172 186 191 187 224 358 6 21
231 269 245 240 254 231 176 201 180 196 162 161 157 165 171 174 181 183 183 182 181 189 194 196 195 196 197 200 202 204 206 207 207 207 209 212 220 216 201 200 198 192 225 221 261 248 254 358 106
215 235 256 266 257 207 170 202 168 208 149 159 167 173 179 184 184 181 179 183 185 193 196 199 198 200 200 201 204 206 210 215 215 214 213 219 221 232 211 212 229 225 210 201 234 245 263 211 271
240 247 249 241 243 188 181 196 207 173 159 168 175 176 183 193 188 186 185 187 190 197 196 198 199 200 202 204 207 211 215 217 219 221 220 227 228 230 227 228 215 200 225 209 224 244 247 270 39
265 162 255 272 156 234 162 195 205 167 165 177 181 180 186 198 192 194 190 193 196 192 195 198 198 200 203 208 208 212 217 226 222 233 233 233 231 224 218 230 221 213 203 199 208 256 239 146 175
336 246 236 314 221 150 158 163 172 171 170 178 186 183 189 198 200 202 198 196 195 196 196 200 199 203 202 206 209 213 220 233 222 230 229 218 224 217 222 225 214 214 215 213 254 245 197 271 310
213 230 260 146 298 200 51 177 166 180 175 183 185 187 190 200 205 203 201 198 196 198 200 202 202 207 204 206 212 213 213 212 202 204 209 218 219 220 220 227 223 221 222 221 243 216 201 195 353
189 249 258 137 298 132 214 181 180 185 188 189 186 191 194 204 206 202 206 198 194 195 197 200 199 207 205 206 210 209 213 210 209 211 216 216 215 217 221 224 224 227 217 228 219 196 222 212 230
221 233 262 115 206 161 209 214 192 183 201 192 187 193 199 207 205 202 205 203 194 192 200 201 203 206 207 205 208 208 214 220 222 222 222 220 220 221 225 224 226 213 215 210 204 209 244 204 206
224 209 244 240 25 48 105 344 173 202 205 203 206 204 201 200 198 193 195 200 199 198 196 201 203 206 209 207 208 208 219 223 222 222 221 222 228 224 229 226 227 224 220 217 210 215 213 185 190
235 204 258 264 52 239 131 255 187 194 212 207 208 207 208 210 209 199 194 196 197 201 199 202 201 203 209 207 207 204 210 210 222 220 219 222 232 232 232 226 227 228 222 219 213 214 215 203 201
239 190 225 182 207 230 227 208 264 178 212 217 214 211 213 209 208 207 197 199 201 197 199 200 202 202 204 208 208 208 208 214 219 220 222 228 235 244 226 222 223 223 221 214 212 211 216 209 210
176 231 8 30 142 241 245 175 246 187 204 212 215 213 212 208 209 211 210 202 203 200 198 197 197 202 202 207 208 209 208 212 216 219 223 229 233 235 225 221 221 218 216 213 213 217 216 215 215
132 114 249 271 205 239 210 196 227 206 203 209 207 213 214 205 206 210 207 203 198 198 199 196 197 200 201 205 206 210 211 215 217 220 222 228 229 234 224 219 218 217 217 216 213 216 215 212 213
199 179 167 198 203 241 163 229 231 210 225 212 211 215 211 207 206 209 207 203 202 196 195 195 197 200 199 201 205 209 212 215 217 220 225 228 228 231 225 219 220 220 216 215 216 218 220 220 222
195 194 197 157 188 6 229 276 297 203 229 227 209 210 205 204 203 211 207 204 204 198 195 196 195 199 198 200 204 206 211 212 216 222 225 229 228 232 232 220 219 219 217 217 220 219 222 225 224
193 172 166 346 218 242 264 247 229 196 220 232 220 199 205 208 206 211 210 205 204 202 197 197 199 197 198 199 202 205 211 215 220 224 224 225 228 230 234 224 220 220 218 218 222 224 224 226 226
192 196 183 156 165 223 234 255 179 205 221 206 219 212 208 209 210 211 213 208 204 200 196 199 197 199 201 199 201 204 209 212 216 224 226 224 225 228 231 223 219 221 218 218 222 226 225 225 225
209 210 168 169 223 240 237 231 307 192 201 199 228 216 219 212 213 213 209 199 195 197 194 196 198 198 201 199 199 202 206 209 213 222 226 225 225 228 229 222 221 222 220 220 223 226 227 227 224